AirNav   Everest Fuels
 
 945 users online  

E30 Bruce Field Airport
Ballinger, Texas, USA

GOING TO BALLINGER?


FAA INFORMATION EFFECTIVE 26 JANUARY 2023

Location

FAA Identifier: E30
Lat/Long: 31-40-28.1000N 099-58-37.2000W
31-40.468333N 099-58.620000W
31.6744722,-99.9770000
(estimated)
Elevation: 1738.5 ft. / 529.9 m (surveyed)
Variation: 08E (1995)
From city: 5 miles SW of BALLINGER, TX
Time zone: UTC -6 (UTC -5 during Daylight Saving Time)
Zip code: 76821

Airport Operations

Airport use: Open to the public
Activation date: 03/1945
Control tower: no
ARTCC: FORT WORTH CENTER
FSS: SAN ANGELO FLIGHT SERVICE STATION
NOTAMs facility: SJT (NOTAM-D service available)
Attendance: UNATNDD
Wind indicator: lighted
Segmented circle: yes
Lights: DUSK-DAWN. ACTVT PAPI RWY 17 - CTAF.
Beacon: white-green (lighted land airport)
Operates sunset to sunrise.

Airport Communications

CTAF: 122.9
SAN ANGELO APPROACH: 125.35
SAN ANGELO DEPARTURE: 125.35
  • APCH/DEP CTL SVC PRVDD BY FORT WORTH ARTCC (ZFW) ON FREQS 126.15/322.55 (SAN ANGELO RCAG) WHEN MIDLAND APCH CTL CLSD.

Nearby radio navigation aids

VOR radial/distance  VOR name  Freq  Var
SJTr044/30.3SAN ANGELO VORTAC115.1010E
TQAr184/34.6TUSCOLA VOR/DME111.6010E

Airport Services

Fuel available: 100LL
100LL:FOR FUEL CALL 325-365-3511. CASH OR CHECK ONLY.
Parking: tiedowns

Runway Information

Runway 17/35

Dimensions: 3909 x 60 ft. / 1191 x 18 m
Surface: asphalt, in fair condition
VEGETATION GROWING THROUGH PVMNT.
Weight bearing capacity: 
Single wheel: 20.0
Runway edge lights: medium intensity
RUNWAY 17  RUNWAY 35
Latitude: 31-40.791357N31-40.146715N
Longitude: 099-58.617497W099-58.620858W
Elevation: 1735.2 ft.1738.4 ft.
Traffic pattern: leftleft
Runway heading: 172 magnetic, 180 true352 magnetic, 000 true
Markings: nonprecision, in good conditionnonprecision, in good condition
Visual slope indicator: 2-light PAPI on left (3.00 degrees glide path)
Touchdown point: yes, no lightsyes, no lights
Obstructions: 15 ft. road, 520 ft. from runway, 21:1 slope to clearnone

Airport Ownership and Management from official FAA records

Ownership: Publicly-owned
Owner: CITY OF BALLINGER
PO BOX 497
BALLINGER, TX 76821
Phone (325) 365-3511
Manager: BRENT ALLEN
P.O. BOX 497
BALLINGER, TX 76821
Phone (325) 365-3591

Airport Operational Statistics

Aircraft based on the field: 17
Single engine airplanes: 16
Multi engine airplanes: 1
    
Aircraft operations: avg 92/week *
67% local general aviation
33% transient general aviation
* for 12-month period ending 23 May 2021

Additional Remarks

DEER ON & INVOF ARPT.
FOR CD CTC SAN ANGELO APCH AT 432-563-2123. WHEN APCH CLSD CTC FORT WORTH ARTCC AT 817-858-7584.
AIRFIELD LTG NOT MNTND. NMRS LGTS OTS.

Instrument Procedures

NOTE: All procedures below are presented as PDF files. If you need a reader for these files, you should download the free Adobe Reader.

NOT FOR NAVIGATION. Please procure official charts for flight.
FAA instrument procedures published for use from 26 January 2023 at 0901Z to 23 February 2023 at 0900z.

 
IAPs - Instrument Approach Procedures
RNAV (GPS) RWY 17   download
RNAV (GPS) RWY 35   download
NOTE: Special Take-Off Minimums/Departure Procedures apply   download (294KB)

Other nearby airports with instrument procedures:

77F - Winters Municipal Airport (16 nm N)
KCOM - Coleman Municipal Airport (31 nm E)
KSJT - San Angelo Regional Airport/Mathis Field (33 nm SW)
KBBD - Curtis Field Airport (45 nm SE)
KDYS - Dyess Air Force Base (45 nm N)
 
Loc | Ops | Rwys | IFR | FBO | Links
Com | Nav | Svcs | Stats | Notes
Area around E30 (Bruce Field Airport)
 
Road maps at: MapQuest Bing Google
 
Aerial photo
WARNING: Photo may not be current or correct
Aerial photo of E30 (Bruce Field Airport)
Do you have a better or more recent aerial photo of Bruce Field Airport that you would like to share? If so, please send us your photo.

 
Sectional chart

 
Airport distance calculator
Flying to Bruce Field Airport? Find the distance to fly.

From to E30

Sunrise and sunset
Times for 02-Feb-2023
 Local
(UTC-6)
 Zulu
(UTC)
Morning civil twilight07:0813:08
Sunrise07:3313:33
Sunset18:1400:14
Evening civil twilight18:4000:40

Current date and time
Zulu (UTC)  03-Feb-2023 03:37:18
Local (UTC-6)  02-Feb-2023 21:37:18
 
METAR
KCOM 
31nm E 
030315Z AUTO 24004KT 5SM BR CLR 01/00 A3042 RMK AO2 T00100004
KSJT 
33nm SW 
030251Z AUTO 00000KT 4SM BR CLR 01/00 A3041 RMK AO2 SLP313 T00110000 53018
KBBD 
45nm SE 
030315Z AUTO 35007KT 8SM OVC027 01/01 A3040 RMK AO2
KDYS 
45nm N 
030255Z AUTO 00000KT 7SM CLR M00/M01 A3039 RMK AO2 SLP309 T10021013 52018
KABI 
47nm N 
030316Z 22004KT 1 1/2SM R35R/4500VP6000FT BR CLR 00/M01 A3043 RMK AO2 T00001011
TAF
KSJT 
33nm SW 
021720Z 0218/0318 33006KT 6SM BR FEW008 BKN015 TEMPO 0218/0220 3SM BR BKN008 OVC015 FM022300 VRB05KT 6SM BR SCT025 BKN040 FM030200 VRB05KT P6SM FEW150 SCT250
NOTAMs
Click for the latest NOTAMs
NOTAMs are issued by the DoD/FAA and will open in a separate window not controlled by AirNav.

 

 
 

FBO, Fuel Providers, and Aircraft Ground Support

  
 Business Name 
 
 Contact 
 
 Services / Description 
 
Fuel Prices
 
Comments
  
Bruce Field Airport 325-365-3511
no information available

If you are affiliated with Bruce Field Airport and would like to show here your services, contact info, web link, logo, and more, click here
100LL
PS $6.41 
 Updated 26-Jan-2023
 
   2 read write
PS=Pump service
Update Fuel Prices
 

Would you like to see your business listed on this page?

 If your business provides an interesting product or service to pilots, flight crews, aircraft, or users of the Bruce Field Airport, you should consider listing it here.  To start the listing process, click on the button below
 
Add a business
 

Other Pages about Bruce Field Airport

ballinger-tx.com/bruce-field
 
Update a link
 
Copyright © AirNav, LLC. All rights reserved. Privacy Policy  Contact